Location: Squirrel Cove
(50.1074°N, 124.9139°W)
Time: 14:25:15
(UTC-07:00)

PCSat - Pass Details

Date: 27 May 2022
Orbit: 784 x 795 km, 67.1° (Epoch: 26 June)

Event Time Altitude Azimuth Distance (km) Brightness Sun altitude
Rises 03:18:56 0° 319° (NW) 3,306 13.1 -13.6°
Reaches altitude 10° 03:21:30 10° 311° (NW) 2,372 12.2 -13.4°
Maximum altitude 03:26:27 37° 246° (WSW) 1,219 10.1 -13.0°
Enters shadow 03:30:34 14° 184° (S) 2,081 11.2 -12.7°
